GFSWCAN_850_temp_057.txt.gz
Temp
11 10 10 11 11 11 11 11 11 11 11 11 11 11 11 11 10 10 9 10 10 10 13 12 12 12 11 11 9 11 10 9 8 6 6 5 5 5 5 4 5 6 5 6 6 7 7 7 7 7 6 5 5 6
10 10 10 11 11 11 11 11 11 11 11 11 11 11 10 10 10 9 9 9 9 9 11 11 12 12 11 11 11 10 9 9 8 8 7 6 5 5 5 5 6 5 5 4 4 5 7 6 5 4 4 3 3 4
10 10 10 11 11 11 11 11 11 11 11 10 10 10 10 10 10 9 9 8 8 10 11 12 12 12 11 11 11 11 10 9 8 7 6 6 4 5 5 6 5 6 4 4 3 7 6 3 3 3 2 2 3 4
10 10 10 11 11 11 11 11 11 11 11 10 10 10 10 9 9 9 8 8 8 8 10 13 13 12 12 12 11 11 11 10 9 7 6 6 5 5 5 5 4 4 3 4 3 4 3 4 3 2 2 2 2 3
10 10 10 10 11 11 11 11 11 11 11 10 10 10 9 9 9 9 8 8 7 8 9 10 11 12 13 12 12 11 11 10 9 8 7 7 9 5 5 5 4 3 4 3 3 4 3 3 2 2 1 1 2 3
10 10 10 10 11 11 11 11 12 11 11 11 10 10 9 9 8 8 8 8 8 8 8 10 13 13 12 13 12 11 11 11 10 10 10 11 10 8 6 5 7 6 5 4 4 4 3 3 2 2 1 1 1 2
10 10 10 10 11 11 11 11 12 11 11 11 10 10 9 8 8 8 9 8 8 8 8 10 13 13 13 11 12 11 11 11 11 11 11 9 10 9 8 5 7 6 6 5 5 4 3 3 3 2 1 1 1 1
10 10 10 10 11 11 11 11 12 11 11 11 10 10 9 8 8 9 9 9 7 7 8 10 13 13 12 12 11 11 12 11 11 11 11 10 11 9 6 9 8 7 7 6 5 5 4 4 3 3 2 1 1 1
10 10 10 10 11 11 11 11 12 11 11 11 10 9 8 8 8 9 9 8 7 7 8 11 10 12 13 13 12 11 12 10 12 10 12 11 6 3 5 9 9 8 8 7 7 7 6 5 5 4 2 2 1 0
10 10 10 10 11 11 11 11 12 12 11 11 10 9 9 10 10 10 8 7 6 6 7 10 12 10 14 10 11 12 12 10 9 10 11 6 4 7 9 9 9 8 8 7 7 6 6 6 5 4 4 3 2 1
10 10 10 10 11 11 11 11 12 12 11 10 10 10 11 10 10 9 11 10 9 10 9 10 9 10 10 8 10 10 8 8 8 9 9 6 6 8 9 9 9 8 8 7 7 6 6 6 6 5 5 4 3 2
10 10 10 10 11 11 12 13 12 12 11 11 10 11 11 11 11 13 12 11 11 10 9 10 12 12 10 10 8 7 9 9 8 10 8 6 7 8 8 9 9 8 9 8 5 6 6 6 6 5 5 4 4 3
10 10 10 11 11 11 11 12 12 12 11 10 10 11 13 13 11 13 9 9 10 11 11 13 13 12 11 9 7 8 8 7 6 6 5 7 8 9 9 9 9 8 8 7 7 6 7 7 6 6 5 5 5 4
10 10 11 11 11 11 10 11 11 11 11 10 13 7 13 14 13 14 11 11 12 12 13 12 12 11 10 9 9 9 8 8 9 8 7 8 9 10 10 10 10 8 8 8 7 8 7 7 7 7 6 5 5 4
10 11 11 12 12 11 11 11 11 11 11 12 15 9 16 17 15 15 14 14 14 15 15 13 13 12 11 11 10 10 11 10 10 9 9 9 9 10 10 10 10 8 8 7 7 7 8 8 8 7 6 6 5 5
10 11 11 11 11 11 11 11 12 11 10 13 15 16 17 16 12 14 15 14 16 16 15 14 14 12 10 10 10 10 10 9 9 9 10 9 9 9 9 10 10 10 9 8 8 8 8 8 7 7 6 7 6 5
10 10 10 10 10 11 11 11 10 10 12 15 17 17 17 16 13 14 13 15 15 16 15 15 13 11 12 11 10 11 9 9 11 10 10 9 9 9 9 9 9 9 9 9 9 8 8 8 8 8 8 7 6 5
9 9 10 10 9 10 11 11 11 14 15 16 17 17 17 13 14 14 15 15 15 15 14 13 13 12 11 10 10 10 10 11 10 10 10 9 8 9 9 9 9 9 9 9 9 8 8 8 8 7 7 6 6 5
10 10 10 11 10 10 10 11 12 14 17 17 18 18 16 14 16 15 15 15 14 14 13 13 13 11 10 11 12 12 11 10 10 9 9 8 8 8 9 9 9 8 9 8 8 7 5 6 8 8 7 6 6 5
11 12 11 11 10 11 12 14 14 15 17 18 18 17 14 15 15 15 15 15 15 14 13 14 13 12 11 11 11 11 11 11 10 10 9 8 9 6 7 8 7 7 7 7 6 5 4 6 6 7 7 7 6 5
11 11 11 11 11 11 12 14 16 16 17 17 15 14 12 14 16 15 15 15 16 15 14 13 13 12 12 11 11 10 10 10 9 8 8 7 7 6 6 7 6 6 7 6 5 4 4 4 5 7 7 6 6 5
10 10 10 10 10 12 12 14 15 16 16 17 16 14 12 13 15 16 15 15 15 14 13 13 12 12 11 11 10 9 10 9 9 8 8 8 7 7 7 7 7 6 5 4 4 4 5 5 4 5 7 6 5 5
10 10 10 12 12 14 15 16 16 16 16 18 17 14 16 17 15 15 12 13 14 14 13 13 12 12 11 11 10 10 10 10 8 8 8 7 6 6 6 6 5 5 5 4 4 4 4 5 5 5 5 5 5 5
10 11 13 15 14 13 16 17 17 17 18 13 14 16 14 17 15 15 14 14 14 13 13 13 12 12 11 11 10 10 10 9 8 7 7 7 6 5 5 5 5 5 3 4 4 4 4 4 4 4 5 5 5 4
11 12 12 12 15 16 17 17 18 18 14 12 14 14 10 12 14 14 14 13 12 12 13 13 13 12 12 11 10 9 9 8 7 6 7 6 6 5 4 5 4 4 5 5 3 4 3 4 4 4 4 4 4 4
7 13 13 16 17 17 18 18 17 15 12 13 14 10 10 11 12 14 13 11 12 12 12 12 12 11 10 10 9 8 8 7 7 7 7 6 5 5 5 5 4 4 4 4 3 3 3 4 3 4 4 4 4 4
9 14 16 16 16 17 17 17 16 15 13 12 10 11 11 8 9 12 11 11 11 11 11 11 11 11 10 9 8 8 7 7 7 6 6 6 5 5 5 4 4 4 4 4 4 4 4 4 3 4 4 4 4 3
14 16 17 18 18 18 19 19 16 12 10 9 9 11 13 12 12 12 11 11 11 11 11 10 10 10 10 9 9 8 8 7 7 7 6 6 5 5 5 4 4 4 4 3 3 3 3 4 3 3 3 3 3 3
14 16 17 17 18 19 19 17 10 11 12 10 10 11 13 13 12 11 10 10 11 11 11 11 10 10 9 9 9 9 9 8 8 7 7 6 6 5 5 5 4 4 4 4 3 4 4 3 4 3 3 3 3 3
16 17 18 18 19 19 17 16 14 13 12 11 10 11 12 11 11 11 11 11 12 12 12 12 11 11 11 10 9 8 8 8 8 8 7 6 6 6 5 5 5 5 4 4 4 4 3 3 3 3 3 3 3 3
18 18 19 19 18 13 14 14 14 12 12 11 9 11 10 10 10 11 11 12 12 12 12 11 11 10 10 10 9 8 7 7 7 7 7 6 6 6 5 5 5 5 5 4 4 4 3 3 3 3 3 3 3 3
19 20 20 16 13 13 14 15 13 12 11 10 11 11 10 11 11 11 11 11 12 11 11 11 10 9 8 8 7 8 7 6 6 6 7 6 5 5 5 5 5 5 5 5 4 4 4 3 3 3 3 3 3 3
20 18 18 15 13 12 10 11 11 11 11 12 13 13 13 13 12 11 11 11 11 11 11 9 9 8 7 7 6 6 6 6 6 6 6 6 5 5 5 5 5 5 5 5 5 4 4 3 3 3 3 3 3 2

GFSWCAN_850_temp_060.txt.gz
Temp
11 11 11 11 11 11 11 11 11 11 11 11 11 11 11 11 11 11 10 9 10 10 12 12 11 11 10 10 6 10 7 7 4 3 5 4 5 5 4 4 5 5 3 5 4 6 6 6 6 6 4 3 3 3
10 10 11 11 11 11 11 11 11 11 11 11 11 11 11 11 10 10 10 9 9 9 11 12 12 11 12 11 11 10 9 8 7 3 4 2 4 4 4 5 5 4 3 3 4 3 6 5 3 3 3 2 2 2
10 10 11 11 11 11 11 11 11 11 11 10 10 10 10 10 10 10 9 9 9 8 10 12 13 12 12 11 11 10 9 9 8 8 5 4 3 2 3 5 5 5 4 3 3 4 4 4 4 3 2 2 1 1
10 10 11 11 11 11 11 11 11 11 11 10 10 10 10 10 10 9 9 8 8 7 8 11 12 12 12 11 11 11 11 10 9 7 6 4 4 4 1 3 4 4 3 4 4 4 4 4 3 3 2 2 2 2
10 10 10 11 11 11 11 11 11 11 11 11 10 10 10 9 9 9 8 8 7 7 7 9 11 12 12 12 11 11 11 10 8 7 5 5 6 3 4 4 4 4 3 3 2 5 4 3 4 3 2 1 1 1
10 10 10 11 11 11 11 11 11 11 11 11 10 10 10 9 9 9 8 7 7 7 8 6 11 12 13 12 12 12 11 10 9 8 7 8 9 7 3 4 6 6 6 5 5 6 4 5 4 3 2 2 1 1
10 10 10 11 11 11 11 11 11 11 11 11 11 10 10 9 9 9 9 9 8 8 8 8 8 12 12 12 12 12 11 11 10 10 9 9 9 8 3 2 7 7 7 6 6 5 4 5 5 4 3 2 2 1
10 10 10 11 11 11 11 11 11 11 11 11 10 10 10 9 9 10 10 8 8 8 8 7 8 11 12 11 10 10 10 10 11 11 9 8 7 7 2 6 8 8 7 6 6 6 6 6 5 5 3 3 2 1
10 10 10 10 11 10 11 11 11 11 11 11 11 11 10 10 10 9 8 8 7 8 7 8 7 8 10 10 9 9 9 7 9 8 8 8 2 3 5 8 8 8 8 7 7 6 6 6 5 5 4 3 3 1
10 10 10 10 10 11 11 11 11 11 11 11 10 10 11 10 9 9 8 7 6 7 7 6 9 7 10 9 8 9 7 7 7 8 9 4 3 7 8 9 9 8 8 8 7 7 7 6 6 5 5 4 3 2
9 10 10 10 11 11 11 12 12 11 11 10 10 10 10 10 9 9 9 8 7 7 7 8 9 7 10 7 6 8 7 6 6 6 7 5 4 6 9 9 9 9 8 8 7 8 6 6 6 5 5 5 4 4
9 10 10 10 11 11 11 12 13 12 11 10 10 10 10 9 9 9 9 10 9 9 9 8 10 10 10 9 7 6 7 7 6 5 5 4 4 8 9 9 9 9 8 8 7 7 7 6 6 6 6 5 5 4
9 10 10 10 11 11 11 11 12 11 10 10 10 10 11 11 9 11 9 8 8 10 11 11 10 11 9 9 7 6 8 7 5 5 4 4 7 8 8 9 9 8 8 8 8 7 7 7 7 6 6 5 5 4
9 10 10 10 11 11 11 11 11 11 11 10 10 5 9 10 12 11 10 10 13 12 13 12 11 9 9 7 7 8 6 6 7 5 6 5 8 9 9 9 9 9 8 8 8 7 7 7 7 7 7 5 5 4
9 10 10 11 12 12 11 11 10 11 11 10 12 7 10 14 13 14 14 11 12 13 12 11 10 11 8 8 7 7 8 8 6 5 5 9 9 9 9 9 9 9 8 8 8 8 7 7 7 7 7 6 5 4
10 10 10 10 10 10 11 11 11 10 10 10 12 12 15 13 11 11 13 12 14 14 13 13 10 8 8 7 9 9 8 5 6 6 9 9 9 9 9 9 9 9 8 8 8 8 8 7 7 7 7 6 5 5
10 10 10 10 10 10 11 11 10 10 10 13 14 15 15 13 13 13 13 14 15 15 11 11 10 11 8 8 9 7 7 6 9 9 9 9 8 8 7 8 9 9 8 8 8 7 7 7 7 7 7 6 5 5
9 9 9 10 10 10 10 10 10 11 11 13 14 15 15 15 15 15 13 14 14 14 13 11 12 10 9 9 7 7 10 11 10 9 9 8 7 7 6 6 7 8 8 8 8 8 8 7 7 7 7 6 5 4
9 9 10 11 10 9 10 10 11 11 14 15 16 15 13 12 12 13 13 14 15 14 14 12 10 8 7 9 10 11 11 10 10 9 9 8 7 6 7 6 5 5 7 7 6 6 6 5 7 6 6 6 5 4
10 10 11 11 10 10 10 12 12 13 14 16 15 14 14 14 14 13 13 14 14 13 13 10 9 11 11 11 11 10 10 9 9 8 7 7 7 7 6 5 6 5 4 4 4 4 4 4 5 5 6 6 5 5
10 10 10 10 10 10 11 12 14 15 16 16 14 14 14 13 12 14 14 15 14 13 11 13 13 12 11 11 10 10 9 9 8 8 7 6 6 6 6 6 4 5 5 4 4 4 4 4 5 5 5 5 5 5
9 9 9 10 10 10 11 13 14 15 15 16 14 13 12 11 13 14 14 15 14 13 13 13 13 12 11 10 10 10 9 9 8 7 7 7 6 5 4 4 4 4 5 4 4 3 3 3 3 5 5 5 5 5
9 10 10 10 10 12 13 14 14 15 13 14 12 10 11 10 10 11 12 13 14 14 13 13 13 12 11 10 10 9 9 8 7 7 6 5 5 4 4 4 4 4 4 5 4 4 4 4 3 4 4 4 5 4
10 10 11 12 12 12 15 15 16 16 15 13 12 12 10 9 9 10 10 13 12 13 13 13 12 11 10 9 9 8 8 8 7 6 6 5 4 4 4 4 4 4 4 3 4 3 4 4 4 5 4 4 4 4
10 11 11 11 13 13 14 14 15 13 11 12 12 10 8 9 9 10 11 11 12 12 12 12 11 10 9 8 8 7 7 7 6 6 5 5 5 4 4 4 4 4 3 4 3 3 3 4 4 4 4 4 4 3
5 12 11 13 15 14 14 15 13 11 11 10 10 9 9 8 9 10 10 11 11 11 12 11 10 9 9 8 8 7 7 7 6 6 5 5 5 4 4 4 4 3 3 3 3 4 4 4 4 4 4 4 3 3
6 11 13 14 15 15 15 16 14 13 12 12 10 10 9 9 8 9 10 11 10 11 11 11 10 10 9 8 8 8 7 7 6 6 5 5 5 4 4 4 3 3 3 4 4 4 4 3 4 3 3 3 3 3
12 14 12 15 15 16 15 15 13 11 10 10 10 11 11 11 10 11 10 10 11 11 11 10 10 10 9 9 8 8 7 6 6 6 5 5 5 4 4 4 3 3 4 4 4 3 3 3 3 3 3 3 3 3
12 14 15 14 15 16 13 12 11 10 11 11 10 9 9 11 11 11 11 11 11 11 11 10 10 9 9 8 8 8 7 7 6 6 5 5 5 4 4 4 4 4 4 4 4 4 3 3 3 3 3 3 3 3
13 14 15 16 15 13 13 13 14 12 11 10 11 10 11 11 11 11 12 11 11 11 11 11 10 9 9 9 9 8 7 7 7 6 6 5 5 5 5 4 4 4 4 4 4 3 3 3 3 3 3 3 3 2
16 16 15 16 13 13 13 14 13 11 10 11 10 10 11 11 11 11 11 11 11 12 11 11 10 10 9 8 8 8 8 7 7 7 6 6 5 5 5 5 4 4 4 4 4 3 3 3 3 3 3 2 2 2
17 17 17 13 12 12 12 12 11 10 9 10 9 10 10 10 10 11 11 11 12 12 11 11 11 10 9 9 8 7 7 7 6 6 6 6 5 5 5 5 5 4 4 4 4 3 3 3 3 3 3 3 3 2
16 16 15 14 12 11 11 11 12 10 10 10 11 10 11 11 11 11 11 11 11 11 11 10 10 9 8 7 7 7 6 6 6 6 6 6 5 5 5 5 5 5 4 4 4 4 3 3 3 3 3 3 2 2

GFSWCAN_850_temp_063.txt.gz
Temp
10 11 10 10 10 10 11 11 11 11 11 11 11 11 11 11 11 11 10 11 11 10 12 11 11 11 10 9 5 9 6 7 3 2 0 4 4 5 3 5 5 3 2 -1 3 4 3 5 5 5 4 3 3 3
10 10 10 10 10 10 11 11 11 11 11 11 11 10 11 10 10 11 10 10 10 10 11 11 12 11 11 11 10 9 8 7 6 1 2 3 4 5 4 -1 5 4 2 1 2 2 4 4 4 4 3 3 2 2
9 10 10 10 10 10 11 11 11 11 11 11 11 10 10 10 10 10 10 10 10 9 10 10 12 12 12 11 11 11 9 9 8 8 4 1 -0 2 3 4 6 5 3 0 2 4 5 5 5 4 3 3 3 2
9 10 10 10 10 10 11 11 11 11 11 11 11 10 10 10 10 10 10 9 9 8 6 11 12 12 12 11 11 11 11 9 9 8 5 1 1 3 -1 1 0 2 3 4 4 4 5 6 5 5 4 3 3 2
9 10 9 10 10 10 10 11 11 11 11 11 11 11 10 10 9 9 9 8 8 8 7 9 10 12 12 11 11 11 11 10 8 6 5 3 5 3 2 3 4 4 3 2 2 5 5 5 5 4 4 3 3 2
10 10 9 10 10 10 10 11 11 11 11 11 11 11 10 10 9 9 8 8 8 8 7 5 10 12 12 12 11 11 11 10 9 8 6 7 8 7 3 3 5 6 6 6 7 7 6 5 5 5 4 4 3 2
9 9 9 10 10 10 10 11 11 11 11 11 11 11 11 10 9 9 9 9 8 8 8 6 7 11 11 11 11 10 9 9 9 8 7 8 7 7 4 1 7 8 8 7 7 6 5 6 6 5 5 4 4 3
9 9 9 10 10 10 10 11 11 11 11 11 11 11 10 10 10 10 10 9 8 7 8 6 6 9 10 11 10 10 10 8 7 7 6 7 5 6 4 6 8 9 8 7 7 6 6 6 6 6 5 5 4 3
9 9 9 10 10 10 10 11 11 11 11 11 11 11 10 10 10 9 9 8 7 7 7 6 5 7 10 9 9 8 8 7 7 6 7 7 3 4 5 9 8 8 8 8 8 7 6 6 6 5 5 5 4 4
9 9 9 9 10 10 10 11 11 11 11 11 11 10 10 9 9 8 7 7 7 7 7 5 8 6 9 8 8 7 7 7 7 6 5 4 3 6 8 9 9 9 8 8 7 7 7 6 6 6 5 5 5 4
9 9 9 9 10 10 10 11 12 12 11 11 10 9 9 8 8 8 8 7 6 6 7 8 8 7 9 7 6 7 6 6 5 4 6 3 3 6 9 9 8 8 8 8 8 8 8 7 7 6 6 6 5 4
9 9 9 9 10 10 10 11 12 11 11 11 10 9 8 8 8 8 8 8 7 8 9 8 10 9 9 8 8 7 7 7 7 5 5 1 2 8 8 8 8 9 9 8 8 8 7 7 7 6 6 6 5 4
8 9 9 10 10 10 10 10 11 11 11 10 10 9 9 9 7 9 9 8 8 10 10 10 8 9 8 8 7 5 8 6 5 4 2 2 8 9 9 9 9 9 9 8 8 8 7 7 7 7 6 6 5 4
8 9 9 10 10 10 10 10 10 10 11 10 9 6 8 8 9 10 9 9 13 12 12 10 9 8 8 7 6 7 6 5 6 5 3 4 10 10 10 10 9 9 8 8 8 7 7 7 7 7 7 6 5 4
9 9 10 10 11 11 11 10 10 10 11 10 9 7 8 12 13 13 13 12 13 13 11 9 9 9 6 7 5 6 7 7 4 4 4 10 10 9 9 9 9 9 9 8 8 8 8 7 7 7 7 6 5 4
9 9 9 9 10 10 10 10 10 10 11 10 10 10 12 11 12 12 12 13 13 13 11 10 8 8 8 6 8 8 7 5 5 5 9 9 9 9 8 8 7 7 7 8 8 8 8 7 7 7 6 6 5 4
9 9 9 9 9 10 10 10 10 10 10 10 11 12 13 13 13 14 13 14 13 12 9 9 10 10 6 7 8 6 6 5 10 10 9 9 9 8 7 7 8 6 7 7 7 7 7 7 7 7 7 6 5 5
9 9 9 9 9 9 10 9 9 9 9 11 11 14 14 14 14 13 14 14 13 13 13 11 10 10 8 8 6 6 10 10 10 9 8 8 8 7 6 6 6 6 6 5 4 5 5 5 6 7 6 6 5 4
9 9 9 10 9 9 9 9 10 10 12 13 13 14 13 13 13 13 13 13 13 13 13 11 9 8 7 8 9 10 10 9 9 9 8 7 7 6 6 5 5 5 5 4 3 3 4 4 6 7 6 6 5 4
9 10 10 10 9 10 10 10 10 11 12 14 14 14 13 13 13 13 13 13 13 12 11 10 9 11 11 11 11 10 9 9 8 8 7 7 6 5 5 5 5 4 3 3 4 4 4 4 5 5 5 5 4 5
10 9 9 10 10 10 10 11 11 13 14 14 13 13 12 12 13 12 12 12 12 11 10 12 11 12 11 10 10 9 9 9 8 8 7 5 5 5 4 4 4 4 3 4 4 3 4 4 4 4 4 5 5 4
9 9 9 9 9 9 9 11 13 14 14 14 13 12 10 9 9 11 11 10 11 12 12 12 12 11 11 10 9 9 9 8 7 6 5 5 5 4 4 4 4 4 4 3 3 3 3 2 2 2 4 4 4 4
9 9 9 9 9 9 11 12 12 13 12 12 11 10 9 9 9 10 9 10 12 13 13 12 12 11 10 10 9 9 8 7 6 6 6 5 4 4 4 4 4 4 3 3 3 3 3 2 1 3 4 4 3 3
9 9 9 10 10 10 13 13 13 14 13 10 9 11 9 9 9 9 9 11 11 12 12 12 11 11 9 9 9 8 7 7 6 5 5 5 4 4 4 4 4 4 3 3 3 3 3 3 2 3 2 3 3 3
9 10 10 10 11 11 11 12 13 11 11 11 11 9 8 9 8 9 10 10 10 11 10 11 10 10 9 8 7 7 7 6 6 5 4 4 4 4 4 4 3 3 3 3 3 3 3 4 4 3 3 3 3 3
4 10 10 11 12 11 12 13 13 11 10 10 10 9 9 7 9 9 8 9 10 10 11 11 10 9 9 8 7 7 6 6 6 5 4 4 4 4 4 3 3 3 3 3 3 4 3 3 4 4 3 3 3 3
5 9 11 12 13 14 14 14 12 11 11 11 10 9 9 9 9 8 9 9 10 11 10 10 10 10 8 8 7 7 7 6 6 5 5 4 4 4 4 4 3 3 3 4 4 4 3 3 3 3 3 3 3 3
10 11 10 13 13 14 13 13 12 11 10 10 10 10 11 10 10 10 10 10 10 11 10 10 10 10 9 9 8 7 7 6 5 5 5 4 4 4 4 3 3 3 3 3 4 3 3 3 3 3 3 3 3 2
10 11 12 12 13 13 13 12 11 12 12 11 10 9 10 10 11 11 11 10 10 10 10 10 9 9 8 8 7 7 7 6 6 5 5 4 4 4 4 4 4 3 3 3 3 3 3 3 3 3 3 3 2 2
11 12 13 13 12 13 13 13 13 12 11 11 10 10 10 10 11 11 10 10 10 10 10 10 10 9 9 8 8 7 6 7 6 6 6 5 5 4 4 4 4 4 4 3 3 3 3 3 3 2 2 2 2 2
13 13 13 14 12 12 12 12 11 11 10 10 10 10 10 11 11 11 11 11 11 11 11 10 9 9 9 8 8 8 7 6 6 6 6 5 5 5 5 4 4 4 4 3 3 3 3 3 3 2 2 2 2 2
14 14 14 11 11 11 11 11 11 10 10 9 9 10 10 10 11 11 11 11 11 12 11 11 11 10 9 9 8 8 8 8 7 6 6 5 5 5 5 4 4 4 4 4 3 3 3 3 3 3 2 2 2 2
15 14 14 12 11 11 11 11 11 10 10 10 10 10 10 10 11 11 11 11 11 11 11 11 10 10 9 8 8 7 7 7 6 6 6 5 5 5 5 5 4 4 4 4 4 3 3 3 3 3 2 2 2 2

GFSWCAN_850_temp_069.txt.gz
Temp
11 11 11 11 10 10 10 11 11 11 11 11 10 10 10 11 11 11 11 11 11 11 11 11 11 10 9 8 10 8 9 8 8 7 6 5 6 6 5 5 7 8 8 8 7 7 8 8 7 9 7 5 5 5
10 10 10 10 10 10 10 11 11 11 11 11 10 10 10 10 10 11 11 11 10 10 10 11 11 11 11 11 10 8 9 7 7 6 5 5 5 5 6 8 6 6 7 7 8 9 7 6 8 6 6 6 5 4
10 10 9 9 9 9 10 10 11 11 11 11 10 10 10 10 10 10 10 10 10 9 10 10 10 10 11 11 11 10 9 9 7 7 6 6 6 7 6 6 6 6 4 6 5 8 7 6 5 5 5 5 4 4
10 10 9 9 9 9 10 10 10 10 11 11 10 10 10 10 10 10 10 10 9 9 9 10 10 10 10 11 11 11 11 10 9 7 7 8 8 5 7 7 6 7 5 6 6 7 6 5 5 6 5 4 4 4
10 10 9 9 9 9 10 10 10 10 11 11 10 10 10 10 9 9 9 9 9 9 9 9 10 10 11 11 11 11 10 10 8 7 8 8 6 6 5 5 6 5 7 6 7 8 8 8 7 6 5 5 5 4
10 10 8 9 9 9 10 10 10 10 10 10 10 10 10 10 9 9 9 9 8 8 7 10 9 9 10 11 11 10 10 9 9 8 6 6 6 6 5 5 8 6 6 7 8 8 7 7 7 6 6 5 5 5
10 9 8 9 9 9 10 10 10 10 10 10 11 10 10 10 9 9 9 9 8 8 7 9 10 9 9 9 9 8 8 8 8 8 6 7 5 4 5 5 7 7 7 6 7 7 6 6 7 6 6 6 5 5
10 9 9 9 9 9 9 10 10 10 10 10 11 10 10 9 9 9 9 9 8 8 8 8 10 9 9 9 8 8 7 7 7 7 5 5 4 4 3 6 7 7 7 5 6 7 7 7 7 7 6 6 6 6
7 8 8 8 8 8 9 10 10 10 10 10 10 10 10 9 9 8 8 8 8 7 8 7 8 11 9 8 8 7 7 8 7 7 6 5 5 4 5 6 6 6 7 7 8 8 7 6 7 7 6 6 6 6
8 8 8 8 8 9 9 10 10 10 10 10 10 9 9 9 8 7 7 7 7 7 7 6 5 8 9 7 8 8 7 9 9 6 5 5 5 7 6 5 6 7 7 7 7 6 6 6 7 7 7 7 6 6
8 8 8 8 9 9 9 9 10 10 10 10 9 9 8 8 7 7 7 8 6 7 6 6 6 9 8 9 9 7 8 8 7 7 7 5 5 8 6 6 7 8 8 7 8 8 8 8 7 7 7 7 6 6
9 9 8 9 9 9 9 9 10 10 10 10 9 8 8 7 7 8 9 8 8 9 7 8 7 7 7 7 8 6 9 7 8 6 7 4 8 8 7 7 7 7 8 8 8 8 8 8 7 7 7 7 6 6
8 9 8 9 9 9 9 9 9 9 9 9 8 8 7 7 8 9 9 9 10 10 9 7 9 7 6 6 7 8 9 8 6 7 5 6 9 7 8 8 8 8 8 8 8 8 8 8 7 7 7 7 6 6
8 8 8 9 9 9 9 9 9 9 9 9 8 6 9 9 9 11 11 12 11 11 9 8 8 8 6 8 7 9 8 7 8 7 6 9 9 8 8 8 8 7 7 7 7 7 7 8 7 7 7 7 6 6
8 8 9 9 9 10 10 10 9 9 9 9 8 7 9 11 10 11 11 11 11 11 9 8 8 8 8 8 8 8 8 7 8 9 10 9 9 8 8 7 6 6 6 6 6 6 6 5 6 6 6 7 7 6
8 8 8 8 8 9 9 9 9 9 9 9 7 9 10 10 11 10 10 11 11 10 9 9 9 10 10 9 8 9 9 9 11 9 9 8 7 7 7 7 6 6 5 4 4 5 5 5 5 5 6 5 6 6
7 8 8 8 8 8 9 9 9 9 9 8 8 9 9 10 10 11 12 12 11 10 12 10 11 11 9 9 8 9 10 11 9 8 8 7 7 7 6 6 6 5 4 3 3 3 3 3 4 4 5 4 4 5
7 8 8 7 8 8 9 9 9 7 7 8 9 11 10 11 12 12 12 11 9 10 9 11 9 11 6 6 9 10 9 9 9 8 7 7 7 6 6 5 5 4 4 3 3 2 3 2 1 1 3 2 4 4
7 8 8 8 8 8 8 8 8 8 9 9 10 11 11 12 12 11 11 11 10 10 10 9 9 7 5 7 9 10 9 8 9 8 7 7 6 6 5 4 4 4 3 3 3 3 3 2 1 0 1 2 3 3
8 8 8 8 8 8 8 8 8 8 9 10 11 11 12 12 12 12 11 10 9 9 9 9 8 7 8 9 9 9 9 9 8 8 6 6 5 5 4 4 4 3 3 3 2 3 2 2 2 2 2 3 3 3
8 8 8 8 8 8 8 9 9 9 10 10 11 11 12 11 10 10 10 9 8 9 8 8 9 9 9 9 10 9 9 8 8 7 6 5 5 4 3 3 3 3 2 2 2 2 2 2 2 1 1 3 3 3
8 8 8 8 8 8 8 9 9 10 10 11 10 11 10 10 10 9 9 9 9 9 9 9 10 10 10 9 9 9 8 7 7 6 5 4 4 4 3 3 3 3 2 2 2 1 1 1 0 1 2 3 3 3
8 8 8 8 7 8 8 9 9 10 12 12 10 11 10 10 9 9 10 9 9 9 9 10 10 10 9 9 9 8 7 6 6 5 5 4 4 4 3 3 3 3 2 3 2 0 -0 0 1 2 3 3 3 3
8 8 8 8 8 7 8 9 9 10 11 11 11 12 10 9 8 9 11 10 9 9 9 9 9 9 8 8 8 7 6 5 5 5 4 4 4 4 4 3 3 3 3 3 2 2 2 2 2 3 3 3 3 3
7 8 8 6 8 8 10 12 12 12 13 12 12 11 10 8 10 10 10 9 8 9 9 9 9 8 8 7 7 6 6 5 4 4 4 4 4 3 3 3 3 3 3 3 3 2 3 3 3 3 3 2 2 2
4 8 7 9 10 10 12 13 13 14 12 12 12 8 8 10 10 9 9 9 9 10 10 9 9 8 8 7 7 6 6 5 4 4 4 4 3 3 3 3 4 3 3 3 3 3 3 3 3 3 2 2 2 2
5 9 9 9 9 10 11 12 11 11 13 13 11 9 10 11 10 10 9 10 10 10 10 9 9 9 8 7 7 6 6 5 5 4 4 3 3 3 3 3 3 3 3 3 3 3 3 3 3 2 2 2 2 2
8 8 10 10 9 10 12 13 13 13 12 10 10 10 9 10 11 10 10 10 10 10 10 9 9 8 8 7 7 7 6 5 5 5 4 4 3 3 3 3 3 3 3 3 3 3 3 3 2 2 2 2 2 2
8 9 9 10 10 11 11 12 13 11 11 10 12 11 10 10 10 10 10 10 10 10 10 9 9 8 8 7 7 7 6 6 5 4 4 4 4 3 3 3 3 3 3 3 3 3 3 2 2 2 2 2 2 2
9 10 10 10 11 13 13 12 11 11 10 10 11 10 10 10 10 11 10 11 11 11 10 10 9 9 9 8 7 7 6 6 5 5 5 5 4 4 4 4 3 3 3 3 3 3 2 2 2 2 2 2 2 2
10 9 10 11 12 11 11 11 10 10 10 10 10 10 10 10 10 10 10 10 11 11 10 10 10 9 9 8 8 8 7 6 6 6 5 5 4 4 4 4 4 3 3 3 3 3 2 2 2 2 2 2 2 2
9 10 11 12 11 10 10 10 9 9 9 9 9 10 10 10 10 11 11 11 11 11 11 10 10 10 10 9 9 8 8 8 7 6 5 5 5 4 4 4 4 4 4 3 3 3 3 3 2 2 2 2 2 2
10 10 10 11 10 10 9 9 10 9 9 9 9 9 10 11 11 11 11 11 11 11 11 10 10 10 10 10 9 9 8 7 7 7 6 5 5 5 4 4 4 4 4 4 4 3 3 3 3 2 2 3 3 3

GFSWCAN_850_temp_072.txt.gz
Temp
10 10 11 11 10 9 9 10 10 11 11 11 11 11 11 11 11 11 11 11 11 14 13 12 12 12 12 13 15 12 13 12 14 12 12 10 10 9 8 9 12 13 12 12 13 13 11 13 12 13 12 10 10 9
10 10 11 11 9 9 9 10 10 10 11 11 11 11 11 11 11 11 10 11 11 11 12 11 12 11 12 12 13 11 13 13 13 13 11 11 10 11 10 11 11 10 12 11 12 13 12 11 12 10 10 10 9 9
10 10 10 10 9 9 9 10 10 10 11 11 11 11 10 10 10 10 10 10 10 11 12 12 12 11 11 11 12 14 12 11 11 11 13 13 10 12 11 11 11 12 10 9 10 13 11 11 10 9 9 9 8 8
10 10 10 10 9 9 9 9 10 10 11 11 11 11 11 10 10 10 9 10 9 11 15 13 10 11 10 11 11 12 11 10 10 11 13 14 13 11 13 12 11 12 10 11 10 11 10 10 10 9 8 8 8 8
10 10 10 10 9 9 9 9 10 10 10 10 11 11 11 10 10 10 10 9 10 10 15 14 11 10 10 10 11 11 11 9 9 11 11 11 12 11 11 12 11 11 11 10 10 12 11 12 10 8 8 8 7 7
10 10 10 9 9 9 9 9 10 10 10 10 11 11 11 10 10 9 10 9 9 9 11 15 11 11 10 10 11 10 11 11 11 9 11 7 8 8 9 8 11 12 11 11 12 11 11 10 9 8 8 8 7 7
10 9 9 8 9 9 9 9 10 10 10 10 11 11 10 10 9 9 11 9 9 9 11 14 15 11 9 10 10 11 9 9 10 9 8 8 6 6 5 7 10 11 10 10 9 9 9 9 9 8 8 8 7 7
8 7 7 8 8 9 9 9 9 10 10 10 10 11 10 9 9 9 9 9 9 9 10 14 15 13 10 12 12 10 11 9 9 10 7 8 5 4 5 8 9 8 9 9 9 8 10 10 9 8 8 7 7 7
8 8 7 8 8 8 8 9 9 10 10 10 10 10 9 9 9 8 9 8 8 8 12 12 14 15 10 11 11 9 10 10 8 10 9 7 6 6 8 10 8 8 8 8 9 8 9 8 9 8 8 7 7 8
8 8 7 7 8 7 9 9 9 10 10 10 10 9 10 8 9 8 8 8 8 9 10 11 11 13 12 12 12 11 10 11 10 9 6 7 7 9 10 9 7 7 8 8 9 9 9 9 9 8 8 8 8 8
8 8 7 7 7 8 9 9 10 10 10 10 9 9 8 8 8 8 9 10 9 10 11 10 10 14 10 12 11 10 11 11 10 10 9 7 7 12 10 8 7 7 8 9 8 8 9 9 9 9 9 9 8 8
8 8 7 8 9 9 9 9 10 10 10 9 9 8 8 8 9 10 11 10 10 13 12 13 12 10 10 9 11 9 10 11 10 11 9 7 11 11 10 9 9 8 9 9 8 8 9 9 9 9 9 9 8 8
8 8 8 8 9 9 9 9 9 9 9 9 8 9 9 10 9 11 12 13 13 14 13 10 11 10 7 8 10 11 11 11 10 10 8 8 11 11 10 9 9 9 9 9 9 9 9 8 9 8 8 8 8 8
8 8 8 8 9 9 9 9 9 9 9 9 10 8 11 12 12 15 15 16 14 14 14 12 11 10 9 11 11 11 11 11 9 9 9 13 11 10 9 9 9 9 9 8 8 7 7 8 7 7 7 8 7 7
7 8 8 8 9 9 10 10 9 9 9 10 10 9 13 14 15 15 14 14 13 13 11 11 12 11 11 11 12 11 10 10 11 11 14 12 10 9 9 8 8 8 8 8 7 7 7 7 7 7 6 6 7 7
7 7 8 8 8 9 9 9 9 8 8 9 10 12 14 15 16 15 15 14 13 12 11 12 13 13 12 12 10 10 11 12 14 14 12 10 9 8 8 7 7 7 7 7 6 5 5 5 4 4 4 4 5 6
7 7 7 8 8 8 9 9 8 7 9 10 12 12 13 14 14 15 15 15 12 11 13 13 12 12 12 8 8 11 11 14 13 11 9 8 8 7 7 6 6 6 6 6 5 4 4 4 4 3 4 4 3 4
7 7 7 7 7 8 9 8 7 8 10 11 13 15 14 13 14 14 14 11 11 11 12 13 12 11 9 6 7 12 13 13 10 9 9 7 7 6 6 6 5 5 5 5 4 4 4 3 3 2 2 3 3 4
6 7 7 7 7 8 7 7 8 11 12 13 13 13 13 14 13 12 12 12 11 10 10 8 8 7 5 5 8 12 13 11 10 9 7 6 6 6 5 5 5 5 4 4 4 4 4 3 2 1 0 2 3 2
7 8 8 8 8 7 7 9 8 8 12 14 13 13 13 14 13 13 13 12 10 9 8 8 8 7 7 9 11 11 11 11 11 10 8 7 6 6 5 5 5 5 5 5 5 3 4 4 2 1 1 1 2 3
8 8 8 8 8 7 7 9 10 10 12 13 14 13 14 13 12 14 13 9 9 10 8 8 9 9 9 9 9 9 9 10 9 9 9 8 7 6 6 5 5 6 6 5 5 2 2 2 2 2 2 2 3 3
7 8 8 8 8 7 7 8 10 11 11 14 13 13 14 13 13 12 9 11 11 9 9 9 9 10 9 9 7 8 7 7 7 7 6 6 7 6 6 6 6 5 5 4 2 1 1 1 2 2 3 3 3 4
7 8 8 8 7 7 9 8 10 12 14 15 13 14 14 13 12 10 12 12 10 9 9 8 9 9 8 7 7 7 7 7 7 6 6 6 6 6 6 5 5 5 5 3 2 1 2 2 3 3 4 5 5 5
7 7 7 8 8 9 10 10 12 13 14 14 15 16 14 12 11 11 11 10 10 9 9 9 9 8 8 7 8 7 7 7 6 6 6 6 6 5 5 5 5 5 5 3 3 3 3 3 3 4 5 5 5 5
6 8 7 6 7 9 11 14 15 15 15 16 15 15 13 11 12 11 11 9 9 10 9 9 9 10 10 9 8 6 6 7 7 6 6 6 6 5 5 5 5 5 6 5 5 5 4 4 4 4 4 4 4 4
5 9 7 11 13 13 15 15 16 16 16 16 15 12 12 12 12 12 12 9 9 9 9 10 10 10 9 9 8 7 6 6 6 6 5 6 6 6 6 6 6 5 5 5 5 5 5 4 4 4 4 4 3 3
7 12 11 10 12 13 14 15 15 15 15 15 14 11 9 9 12 13 11 10 10 10 10 10 10 10 9 9 8 7 6 6 6 6 5 5 5 5 6 6 5 5 5 5 5 5 5 4 4 4 4 3 3 3
11 11 13 13 12 13 14 15 16 16 16 14 13 13 12 11 13 12 11 10 10 10 10 10 10 9 9 8 7 7 6 6 5 5 5 4 4 4 4 4 4 4 4 4 4 4 4 4 4 4 4 4 4 3
11 12 12 12 13 14 14 15 16 15 12 13 14 14 13 12 12 11 10 10 10 10 10 9 9 9 8 8 7 7 7 6 6 6 6 6 5 5 4 4 4 4 4 4 3 3 3 3 3 4 3 4 4 4
12 12 13 13 14 15 16 15 14 12 11 11 12 12 12 11 11 10 10 10 11 11 11 10 9 9 9 8 8 7 7 7 7 7 7 7 6 5 5 5 4 4 4 4 4 3 3 3 3 4 4 4 4 4
12 12 12 13 15 15 14 13 11 10 11 12 11 12 13 12 11 10 10 11 11 11 11 11 10 10 10 9 9 8 8 7 7 7 7 7 6 5 5 5 4 4 4 4 4 4 4 4 4 4 4 4 3 4
12 12 13 15 15 13 11 12 13 13 11 11 12 12 12 12 13 11 10 10 11 11 11 11 11 11 10 10 9 9 8 8 7 6 6 6 6 5 5 5 5 5 4 4 4 5 4 4 4 4 4 4 4 4
13 13 13 14 15 13 12 12 13 13 12 13 13 12 13 14 14 12 11 11 11 11 11 11 11 10 10 9 9 9 8 8 7 7 6 6 6 5 5 5 5 5 5 5 5 5 4 4 4 4 4 4 4 4

GFSWCAN_850_temp_075.txt.gz
Temp
10 9 10 10 10 9 9 9 10 11 11 11 11 11 11 12 12 13 12 13 13 17 16 16 16 16 16 17 18 15 16 16 17 16 16 13 13 13 12 13 15 17 15 15 17 17 15 16 16 16 15 14 14 14
9 9 9 9 10 9 9 9 10 11 11 11 11 11 11 11 11 12 13 12 13 13 16 15 15 15 15 15 16 15 16 16 17 17 16 15 13 15 14 13 15 13 16 13 16 15 15 15 15 14 14 13 13 13
9 9 10 10 10 9 9 9 9 10 11 11 11 11 11 11 11 11 11 11 12 14 16 15 15 14 14 14 15 16 16 15 15 14 17 17 14 16 14 14 15 15 15 12 14 16 15 14 14 13 13 13 12 12
10 10 10 10 10 9 9 9 9 10 11 11 11 11 11 11 11 11 11 11 12 14 17 17 14 14 14 14 14 14 14 14 14 14 16 16 14 15 15 16 14 15 15 14 14 15 14 14 13 13 12 12 11 11
10 10 10 10 9 8 9 9 9 10 10 10 11 11 11 11 11 11 10 10 11 12 17 18 15 15 14 14 13 14 14 14 14 14 15 15 14 14 15 15 14 16 15 13 12 15 14 14 13 12 12 11 11 11
10 10 10 10 8 8 8 9 9 10 10 10 10 11 11 11 11 10 12 11 10 11 14 18 15 14 13 13 13 13 13 13 13 13 14 11 12 12 12 11 14 14 14 14 14 14 14 14 13 12 11 11 11 10
10 10 9 9 8 8 9 9 9 10 10 10 10 11 11 11 10 11 11 10 11 10 14 18 18 14 13 13 14 14 13 13 13 11 11 13 10 9 7 8 12 13 13 12 13 13 13 12 12 11 11 11 10 10
8 8 8 7 8 8 8 8 9 10 10 10 10 11 11 10 10 11 10 10 10 11 13 17 18 16 14 15 14 14 13 12 11 13 11 10 8 8 7 11 12 11 11 11 11 12 12 12 12 11 10 10 10 9
8 8 8 8 8 8 8 8 9 10 10 10 10 10 10 10 11 10 10 10 9 10 14 16 18 14 14 16 14 14 13 12 11 11 11 11 10 8 10 12 13 12 10 10 10 10 11 12 12 11 10 10 10 10
8 8 7 7 7 7 7 8 9 10 10 10 10 9 12 10 10 10 9 9 9 11 13 15 17 16 16 16 14 12 11 13 12 12 11 11 9 11 12 13 12 10 9 8 8 8 9 10 11 11 11 11 11 10
8 7 7 7 6 7 7 8 9 9 10 9 10 12 9 10 9 10 11 11 11 14 15 16 16 16 14 15 14 13 14 14 12 13 12 10 9 13 13 12 11 10 9 10 11 11 10 10 11 11 11 11 10 10
8 7 7 7 8 8 9 9 10 9 8 10 10 9 9 10 11 11 12 12 12 16 16 16 16 15 14 13 13 13 14 14 13 13 11 9 12 13 12 12 12 11 10 10 11 11 10 10 11 11 11 11 10 10
8 8 8 8 8 9 9 9 9 9 9 9 10 11 12 11 10 11 13 14 16 17 16 15 15 14 12 13 13 13 13 13 14 13 9 11 13 13 13 12 12 11 11 10 10 10 10 10 10 10 9 10 10 10
8 8 8 8 9 9 9 9 9 9 9 11 12 9 13 13 15 17 18 16 17 18 16 14 13 13 13 13 13 12 13 14 11 10 10 15 12 12 12 11 11 11 11 11 10 10 9 9 9 9 8 9 9 9
8 8 8 8 9 9 10 10 9 9 9 12 13 10 16 16 18 17 17 17 16 17 16 14 12 12 12 12 13 11 12 11 12 13 14 10 11 11 11 11 11 10 10 10 9 8 8 8 8 8 8 7 7 8
7 7 8 8 8 9 9 9 9 8 9 11 12 15 17 18 19 19 18 18 17 17 14 12 13 13 12 12 11 9 10 11 14 14 14 12 10 10 9 9 9 9 9 9 9 9 8 8 8 7 7 6 6 5
7 7 7 8 8 8 9 8 8 9 11 13 15 15 16 16 17 18 18 18 16 16 14 13 12 13 12 10 8 9 11 13 14 14 11 10 9 9 9 9 8 8 8 8 8 7 7 7 6 6 6 6 5 5
6 7 7 7 8 8 7 8 9 11 12 14 15 16 17 17 17 17 17 16 15 14 13 13 12 8 6 6 6 8 11 13 13 12 11 9 8 8 9 8 7 7 7 7 7 6 6 5 5 5 4 3 3 3
7 7 7 8 7 7 9 9 9 12 14 15 16 16 16 16 16 16 16 15 14 13 12 11 7 7 6 7 10 11 13 14 13 11 10 8 8 8 7 8 8 7 6 6 7 7 6 4 3 2 2 2 2 3
7 8 8 8 8 7 10 11 10 10 13 16 16 16 16 17 17 16 16 14 12 11 10 9 9 10 10 11 11 11 12 13 13 11 11 9 9 7 7 7 8 8 8 8 7 5 5 4 3 2 1 2 2 3
8 7 8 8 7 7 10 12 12 13 14 15 17 17 17 16 15 15 14 13 12 11 10 9 11 12 12 11 11 12 11 12 12 11 11 12 9 9 9 8 8 9 8 8 6 4 4 3 3 2 1 1 2 2
6 7 7 7 7 8 9 11 12 13 13 15 16 16 16 16 14 14 14 13 11 12 11 11 10 10 9 10 10 10 9 9 9 9 9 9 10 9 9 8 9 8 7 6 4 4 3 3 3 3 3 3 4 4
7 7 7 7 8 8 9 11 12 14 16 16 16 15 14 14 14 14 13 11 12 11 10 10 9 9 9 9 9 9 9 9 9 9 9 9 8 8 8 8 8 7 6 6 5 4 4 4 4 4 5 5 4 5
7 7 9 10 9 10 12 12 12 15 16 16 16 16 16 14 14 14 13 11 12 11 10 10 10 10 10 9 10 10 9 9 9 9 9 9 9 8 8 8 8 7 7 6 5 4 4 5 4 6 6 5 6 5
7 8 9 7 10 11 14 15 16 16 16 16 16 16 13 14 14 14 13 12 10 10 10 10 10 10 11 12 11 9 9 10 10 9 8 8 8 8 8 8 7 7 7 7 6 6 6 5 6 6 6 6 5 5
7 10 9 14 15 14 17 17 16 16 18 18 16 15 13 10 10 13 13 12 10 11 11 11 11 12 12 12 11 10 9 9 9 9 8 8 9 9 9 8 8 7 7 7 7 6 6 6 6 6 5 4 5 5
8 13 13 13 14 15 16 17 17 18 18 16 15 15 14 13 13 15 13 13 12 12 12 13 13 13 12 11 10 9 9 9 9 9 8 8 8 8 8 9 8 7 7 7 7 6 6 6 6 6 5 5 5 5
12 14 15 15 15 15 16 16 17 18 18 16 16 14 15 15 14 14 14 13 13 12 12 12 12 12 11 10 10 9 9 8 7 8 7 7 7 7 7 7 6 5 6 6 5 6 6 6 6 6 6 5 5 5
13 14 14 15 15 16 16 17 17 18 16 15 15 14 15 15 14 14 13 13 13 12 12 12 12 11 10 10 10 9 9 9 8 8 8 8 8 7 7 6 6 6 6 5 5 4 4 5 5 5 5 5 5 5
14 14 15 16 16 17 17 18 18 17 15 15 15 15 15 15 14 13 13 13 13 12 12 12 12 11 11 11 10 10 10 10 9 10 10 9 9 8 7 7 7 7 7 6 6 5 5 4 5 5 5 6 5 5
15 15 15 16 16 17 17 17 16 15 14 15 15 14 14 15 13 13 13 13 13 13 13 12 12 12 12 11 11 10 10 10 9 9 9 9 8 8 7 7 7 7 7 7 7 7 7 6 6 6 6 5 5 5
15 15 16 16 17 17 15 16 16 14 14 14 14 15 15 15 15 14 13 13 13 13 13 13 13 12 12 12 12 11 10 11 10 9 8 8 8 7 7 7 7 7 6 7 7 7 6 6 6 6 6 5 5 5
15 16 16 16 17 17 16 15 16 15 14 15 15 16 16 16 15 14 13 13 13 13 13 13 12 12 12 11 12 11 10 10 10 9 8 8 8 7 7 7 7 7 6 7 7 7 6 6 6 6 6 5 5 5

GFSWCAN_850_temp_078.txt.gz
Temp
10 10 9 9 9 10 10 9 9 10 11 11 12 12 12 12 13 13 14 14 14 17 19 18 18 18 18 19 20 17 18 18 19 18 17 15 14 15 14 15 16 17 16 16 18 17 16 18 18 17 17 17 17 17
9 9 9 10 9 10 9 9 9 10 11 11 11 12 12 12 12 13 13 14 14 14 17 17 17 17 17 17 18 17 18 18 18 18 17 17 14 17 15 14 17 15 17 14 17 15 16 16 16 15 16 15 15 15
10 10 10 10 9 10 9 9 9 10 10 11 11 11 11 11 12 13 12 13 14 15 17 17 17 17 16 17 17 17 17 17 17 16 17 18 16 17 15 16 16 17 17 15 15 17 16 16 15 15 15 15 14 14
11 10 10 10 10 10 9 9 9 10 10 11 11 11 11 11 12 12 11 13 13 15 18 18 17 16 16 16 16 16 16 15 16 16 17 17 16 17 16 16 15 16 17 16 15 16 16 16 15 14 14 14 14 13
10 10 10 10 10 9 8 9 9 10 10 11 11 11 11 11 12 12 12 12 13 13 16 18 17 17 16 16 16 15 16 15 16 16 16 16 15 15 16 15 14 17 15 14 14 16 15 15 15 14 14 13 13 13
9 10 10 10 9 8 8 9 9 10 10 10 11 11 11 11 11 12 13 13 13 13 14 18 17 16 16 16 15 15 16 15 15 15 15 15 15 14 14 13 15 15 14 13 14 14 14 15 15 15 14 13 12 12
8 8 9 8 7 7 8 9 9 9 10 10 10 11 11 11 11 11 11 11 12 12 14 18 19 16 15 15 16 16 15 15 14 14 14 15 12 12 11 10 14 14 14 13 13 13 12 14 14 14 13 13 12 12
8 8 7 7 7 7 8 8 8 9 9 10 11 11 11 11 11 11 11 11 12 12 15 18 18 17 16 16 16 16 15 14 14 14 13 12 11 12 10 12 13 13 14 13 12 12 12 13 13 13 13 12 12 11
8 8 8 8 7 8 8 8 8 9 10 10 11 11 11 11 12 10 11 11 11 11 14 18 18 17 16 16 15 15 14 14 14 13 12 12 11 8 11 12 14 14 13 13 12 11 11 10 11 13 12 12 11 11
8 8 8 7 7 7 7 7 8 9 10 10 11 10 12 11 11 11 10 10 11 12 13 16 18 15 17 16 15 15 13 14 12 13 12 12 10 12 12 13 13 13 12 11 11 11 10 9 10 11 12 12 11 11
8 7 7 7 7 6 6 7 8 9 10 10 10 13 10 11 11 12 11 12 13 14 16 17 18 18 17 17 14 14 14 15 12 13 13 11 10 14 14 14 13 13 12 11 10 10 9 9 8 9 10 10 11 11
7 7 7 7 6 7 8 9 10 9 9 10 10 11 11 11 13 12 12 13 14 16 18 18 18 17 16 16 14 15 14 15 13 14 13 9 12 13 14 13 13 12 12 11 11 10 9 9 9 10 11 11 12 12
8 8 8 8 8 8 9 9 9 9 9 9 10 12 13 12 10 12 13 14 16 17 18 17 17 15 14 14 13 14 14 13 14 13 10 10 14 13 13 13 13 12 11 11 11 10 11 10 9 9 9 9 10 10
8 8 8 8 8 9 9 9 9 9 10 11 13 7 14 14 15 17 17 18 18 18 16 16 15 14 12 10 11 12 11 11 10 12 10 14 12 10 12 12 12 12 11 11 10 10 9 9 9 9 8 9 8 9
7 8 8 8 9 9 10 9 9 9 9 13 15 10 16 17 18 19 18 17 17 17 17 14 14 13 13 12 11 10 9 8 11 13 14 11 11 10 11 11 11 11 10 9 9 9 9 9 9 8 8 8 8 8
7 7 8 8 8 9 10 9 9 8 11 13 14 16 17 19 20 20 19 19 18 16 16 15 15 13 12 10 9 7 8 9 13 13 11 10 10 10 10 10 9 9 9 10 10 8 8 8 7 7 7 7 7 7
7 6 7 8 8 8 9 9 9 10 12 14 16 16 17 18 18 19 19 19 19 17 15 15 14 13 11 8 8 9 9 14 14 11 11 10 10 10 10 9 9 9 8 8 8 7 7 7 7 7 7 7 7 6
6 7 7 7 7 8 8 9 11 13 13 14 16 17 17 18 18 18 19 18 17 15 15 14 14 13 9 8 9 11 12 13 12 10 10 9 9 9 9 8 8 8 8 7 7 8 6 6 5 5 5 4 3 3
7 7 7 7 7 8 10 11 10 13 15 16 16 17 17 18 18 18 18 16 16 15 15 14 11 10 10 10 12 14 13 13 12 12 10 9 9 8 8 9 9 9 9 8 8 8 7 4 3 3 2 2 3 3
7 7 7 8 7 7 11 12 12 13 14 16 16 17 17 18 18 16 15 14 12 13 14 14 14 11 13 13 13 13 13 14 14 12 11 11 10 9 8 9 9 9 10 8 7 6 6 3 4 2 2 2 2 2
8 7 8 8 8 7 10 13 14 14 15 16 16 17 18 16 15 12 12 11 12 13 14 14 13 13 13 12 12 12 12 12 12 12 12 10 11 10 10 10 10 9 9 7 6 5 5 4 3 2 3 4 4 4
7 7 7 7 8 9 10 12 13 14 14 15 16 17 18 14 12 12 13 12 13 12 13 13 11 11 11 11 12 12 10 11 10 10 10 10 11 11 10 10 10 9 7 6 5 5 4 4 4 5 5 5 5 5
6 7 8 9 9 10 10 12 13 14 15 17 16 16 15 12 13 13 14 13 13 13 11 11 10 10 10 10 10 10 10 10 11 11 11 10 10 10 10 10 9 8 7 6 6 6 5 5 5 4 5 5 5 5
6 8 10 11 10 10 13 14 14 15 16 16 16 16 13 11 13 15 14 14 13 12 11 10 11 10 10 10 11 11 10 11 11 10 10 10 10 9 10 9 9 9 8 7 7 6 6 6 6 6 6 5 6 5
8 8 9 6 11 12 14 15 16 16 17 17 16 14 13 13 14 14 14 13 12 12 11 11 11 11 12 13 12 11 10 11 11 11 10 10 10 10 10 9 9 9 8 7 7 7 7 6 7 6 7 6 6 5
7 11 9 14 15 15 17 15 16 15 17 16 16 14 14 14 12 14 15 14 13 12 12 12 12 13 13 13 13 11 11 11 11 11 10 10 10 11 10 10 9 9 8 8 8 7 7 7 7 6 6 6 6 6
9 13 14 13 14 14 16 18 17 16 17 16 16 15 15 15 15 15 15 14 13 12 12 13 13 14 14 13 12 11 11 10 10 10 9 10 10 10 10 10 9 8 8 8 8 7 7 7 7 7 7 6 6 6
12 14 16 16 16 17 17 18 18 17 18 18 17 15 14 16 16 16 16 15 14 14 14 14 14 14 13 12 11 11 10 10 9 9 9 9 9 9 8 8 7 7 7 6 7 7 7 7 7 7 6 6 6 6
12 14 15 16 17 18 17 18 18 19 17 17 17 12 12 15 16 16 15 15 14 14 14 14 14 13 12 12 11 11 10 10 10 9 10 10 9 9 8 8 7 7 7 6 6 6 6 6 6 6 6 6 6 5
14 15 16 17 17 17 18 18 19 19 18 17 15 14 15 16 16 15 15 14 14 14 14 14 13 13 12 12 12 11 11 11 11 11 11 11 10 10 9 8 8 8 8 7 7 6 6 6 6 6 6 6 6 6
16 16 17 17 18 17 18 18 19 18 17 17 16 15 16 15 15 15 15 15 14 14 14 14 13 13 13 13 12 12 12 11 11 11 10 11 10 9 9 8 8 8 8 8 8 8 7 7 7 7 7 6 6 6
16 17 17 18 18 18 18 18 18 16 15 14 16 15 15 15 16 15 15 15 14 15 14 14 14 14 13 13 13 13 12 12 11 10 9 10 10 9 8 8 8 8 8 8 8 8 8 7 8 7 7 6 6 6
17 17 17 18 18 18 18 18 17 15 14 15 15 16 15 15 14 13 14 15 14 15 15 14 14 13 13 13 13 13 12 12 11 10 9 9 9 9 8 8 9 8 8 8 8 9 8 8 8 7 7 7 6 6

GFSWCAN_850_temp_084.txt.gz
Temp
11 11 11 11 10 9 10 10 10 11 10 11 12 12 12 13 13 14 13 13 13 14 16 17 18 18 17 16 11 16 14 15 11 10 9 6 7 8 8 13 13 11 8 6 9 10 11 15 15 15 13 13 15 16
10 11 11 11 10 10 10 10 10 10 10 11 11 12 12 12 13 13 13 13 13 14 16 17 17 17 17 17 17 17 16 15 15 9 9 8 8 9 8 8 12 9 10 8 9 8 13 15 15 15 15 14 14 15
8 9 11 11 11 10 10 10 10 10 10 11 11 11 12 12 12 13 13 13 14 14 16 16 17 17 17 17 17 17 16 16 16 16 13 9 11 7 8 8 12 12 13 8 10 13 14 15 15 15 15 15 14 14
8 7 9 11 10 10 10 10 10 10 10 11 11 11 11 12 12 13 13 12 13 13 12 16 18 17 17 17 17 16 16 16 16 16 14 8 10 12 8 10 9 11 13 11 10 12 14 15 15 15 15 14 14 14
9 8 7 9 10 10 10 10 10 10 10 11 11 11 11 12 12 13 13 12 12 12 12 14 16 17 17 17 16 16 16 16 15 14 10 10 12 11 10 9 9 13 10 8 8 12 12 14 14 15 15 15 14 14
8 7 7 7 8 10 10 10 9 9 10 10 11 11 11 12 12 12 12 12 12 13 13 10 16 17 17 16 16 16 15 15 15 15 13 13 13 12 8 5 12 13 14 14 14 14 13 14 14 14 14 14 14 14
9 8 7 7 6 8 10 9 8 8 9 10 10 11 12 12 12 12 12 12 12 12 13 12 13 17 16 16 15 15 15 15 15 14 13 13 13 13 6 5 13 14 13 13 13 13 13 13 13 13 13 14 14 14
9 9 9 8 7 6 6 7 8 9 9 10 10 11 12 12 12 12 12 12 12 13 12 10 12 16 16 15 15 15 15 15 14 14 13 11 11 11 6 10 12 12 13 13 13 13 13 13 12 12 13 12 13 13
7 7 7 8 7 7 7 7 8 9 9 10 10 11 12 12 11 11 11 12 12 12 11 11 10 11 16 16 15 15 15 9 13 10 10 10 6 5 8 11 12 12 12 12 13 13 12 12 11 11 11 11 12 13
8 7 7 8 7 7 7 8 8 8 9 9 11 11 11 11 11 11 11 11 11 11 11 10 13 12 15 14 12 13 13 9 9 9 11 7 6 11 12 12 13 12 12 12 12 12 11 11 11 11 11 11 10 10
8 6 6 7 7 7 7 6 7 7 8 10 11 10 10 11 11 11 11 11 11 10 12 13 14 12 15 11 10 13 10 9 8 8 9 5 7 10 12 12 12 12 12 12 12 11 11 10 10 10 9 10 10 9
8 7 6 6 6 6 6 6 7 8 9 9 10 10 10 11 11 11 10 12 11 11 14 13 14 15 13 13 11 10 9 9 10 10 9 7 8 10 12 12 12 12 12 12 11 11 10 10 10 9 9 8 8 8
8 8 7 7 7 7 7 7 8 9 9 9 10 11 11 11 7 10 10 11 10 13 14 14 11 13 12 12 9 8 10 10 10 9 7 7 9 10 12 12 12 12 12 11 10 10 10 10 9 9 9 8 8 7
7 7 8 8 8 8 8 8 8 9 9 9 10 6 9 9 10 9 10 10 13 13 12 14 13 12 11 10 9 10 8 9 9 8 8 7 10 11 11 11 10 10 10 10 10 9 9 9 9 9 8 8 8 8
6 7 8 8 8 8 9 9 9 9 9 9 11 8 9 13 14 14 14 13 13 13 13 12 11 12 9 9 8 8 8 9 8 7 7 10 10 10 10 9 10 9 9 9 9 8 8 8 8 8 8 8 7 7
6 7 7 7 8 8 9 9 9 9 9 9 11 11 14 13 13 15 16 12 13 13 13 11 10 10 9 9 8 8 9 7 7 7 10 10 10 10 9 9 9 9 9 8 8 8 8 7 7 7 7 7 6 6
6 7 7 7 7 8 8 8 8 9 9 11 12 13 13 14 14 15 16 15 13 11 9 10 11 10 8 8 8 8 7 7 10 10 10 10 10 9 9 9 9 9 8 7 7 7 7 6 6 6 6 5 5 5
6 6 6 6 7 8 8 8 8 9 10 11 12 13 14 14 15 16 15 15 13 13 11 11 12 9 8 7 7 7 10 10 11 11 10 9 10 9 9 9 9 8 8 7 7 7 6 6 5 3 3 3 3 3
6 6 6 6 7 8 8 8 9 9 12 13 13 14 14 15 14 15 15 15 15 15 14 13 10 9 8 9 10 11 11 11 10 10 9 10 10 9 9 9 8 8 7 7 7 6 5 5 3 3 4 3 4 3
6 6 6 7 7 8 8 10 10 11 11 13 13 14 15 15 14 14 14 14 14 13 11 10 10 12 12 13 12 12 12 12 10 9 9 9 10 9 9 8 8 8 7 7 6 5 5 4 4 4 4 4 4 3
7 7 7 7 7 8 8 9 11 12 13 13 14 14 14 13 13 13 13 13 13 11 10 12 13 13 13 13 12 12 12 12 11 11 10 9 10 10 9 8 8 8 7 6 6 5 5 5 5 5 5 5 4 4
6 7 7 7 7 7 8 9 10 11 12 13 13 14 14 13 12 11 11 11 10 11 11 12 12 13 12 12 12 12 12 11 11 11 11 10 10 9 8 8 8 7 6 6 6 6 6 5 5 5 5 5 5 5
6 6 7 7 8 9 10 10 10 12 10 13 14 13 11 11 11 11 11 11 12 12 12 12 12 12 12 11 11 11 11 11 11 10 10 10 10 10 9 9 9 8 8 6 6 6 6 6 6 6 5 5 5 5
6 7 8 9 9 8 10 11 12 13 14 12 12 11 10 10 10 9 9 10 12 12 12 12 12 11 11 11 11 11 11 11 11 10 10 10 10 9 9 9 8 8 8 7 7 6 6 6 6 6 5 5 5 5
6 7 7 6 10 10 11 11 12 12 12 12 13 10 9 10 10 10 11 11 11 11 11 11 11 11 10 10 11 11 11 11 11 10 10 10 10 9 9 9 8 8 8 7 7 7 6 6 6 6 6 6 5 5
5 8 7 10 11 10 12 13 12 13 12 12 12 13 12 10 11 12 11 12 11 12 11 11 11 10 10 11 11 11 11 11 11 10 10 10 10 10 9 9 8 8 8 8 7 7 7 7 7 6 6 6 6 5
5 8 10 11 12 12 13 15 14 12 13 14 12 11 12 12 13 12 14 13 13 13 13 12 12 12 11 11 11 11 11 11 11 11 10 10 10 10 10 9 9 8 8 8 8 7 7 7 7 6 6 6 6 6
8 10 10 12 12 12 12 13 13 14 13 15 14 12 13 13 12 14 14 14 13 13 12 12 12 12 12 12 12 11 11 11 11 10 10 9 9 10 10 9 9 8 8 8 7 7 7 7 7 6 6 6 6 6
9 10 11 11 12 13 14 13 14 16 17 15 13 12 12 14 15 15 15 14 14 14 13 12 12 12 12 11 11 11 10 10 10 10 10 9 9 9 9 9 8 8 8 8 7 7 7 7 7 7 6 6 6 6
10 11 12 13 13 13 15 15 17 17 17 16 15 14 14 14 14 15 15 14 14 14 13 13 12 12 12 11 11 10 10 10 10 10 9 9 9 9 9 9 8 8 8 8 8 7 7 7 7 6 6 6 6 6
11 12 12 13 13 15 15 17 17 16 15 13 14 14 13 14 14 14 14 14 14 14 14 13 13 13 12 12 11 11 11 11 11 11 10 10 10 9 9 9 8 8 8 8 8 8 7 7 7 6 6 6 6 6
12 13 13 13 14 16 16 17 17 16 15 14 12 12 12 12 11 11 12 14 14 14 14 14 13 13 13 13 12 12 12 12 11 11 10 11 11 10 9 9 8 8 8 8 8 8 8 8 7 7 7 7 6 6
14 14 14 15 16 16 17 17 16 15 14 12 11 11 10 9 9 9 9 9 11 12 13 13 13 13 13 13 13 13 12 12 12 11 11 11 11 10 9 9 9 8 8 8 8 8 8 8 8 7 7 7 7 7

GFSWCAN_850_temp_087.txt.gz
Temp
10 10 10 11 11 10 10 10 10 10 10 10 11 12 12 12 13 13 12 14 14 15 16 17 17 17 16 15 11 15 13 14 9 9 8 5 6 7 7 11 12 10 7 5 8 9 11 14 14 16 13 13 14 14
9 7 8 10 10 10 10 10 10 10 10 10 11 11 12 12 12 13 12 13 14 14 15 16 17 17 17 17 17 15 14 13 13 7 7 6 7 7 7 7 10 9 9 8 8 8 12 13 15 15 16 15 13 14
8 7 7 7 9 10 10 10 10 10 9 9 11 11 11 11 12 12 12 13 14 14 16 16 17 17 17 17 17 16 15 15 15 15 10 7 11 6 8 8 11 11 10 6 9 11 13 15 15 15 15 16 15 15
9 10 8 7 8 10 10 10 10 10 9 9 11 11 11 12 12 12 12 13 13 13 12 16 17 17 17 17 17 17 16 16 15 15 12 7 9 9 7 9 8 10 11 9 9 11 13 14 15 15 15 14 15 15
10 10 7 7 7 9 10 10 10 9 9 9 10 11 11 12 12 12 12 12 12 13 12 14 16 17 17 16 16 16 16 16 15 14 9 9 9 9 7 7 7 11 9 7 7 13 13 14 14 14 14 14 14 14
11 9 8 7 7 7 9 9 9 9 9 10 10 11 11 11 12 12 12 12 12 12 13 11 15 16 16 16 16 15 15 15 15 14 12 12 12 11 7 4 10 13 13 14 14 14 14 14 14 13 14 14 13 14
9 9 8 8 7 6 7 8 8 8 8 9 10 10 11 12 12 12 12 11 12 12 13 12 12 15 16 16 15 15 15 15 15 14 12 12 12 12 5 4 12 13 14 14 13 13 12 13 13 13 13 13 13 13
7 8 8 9 8 7 6 6 7 7 9 9 10 11 11 11 12 12 12 11 12 12 12 9 10 15 15 15 15 15 15 14 13 13 11 10 10 9 6 9 11 12 12 13 13 13 13 13 12 12 12 12 12 12
7 7 7 8 7 7 6 7 7 8 8 9 10 11 11 11 11 11 11 11 12 12 11 10 9 10 15 15 14 13 14 9 11 9 9 10 5 5 8 12 12 12 12 12 13 13 12 12 12 11 11 11 11 11
7 6 7 7 7 7 7 7 8 8 8 10 11 11 10 11 10 11 11 11 11 11 11 9 11 10 14 12 11 12 11 9 9 8 9 6 5 10 12 12 12 12 12 12 12 12 12 12 11 11 10 10 10 10
7 6 6 6 7 7 7 7 7 7 8 10 11 11 10 10 10 11 11 10 10 10 11 11 12 11 13 10 10 11 9 7 8 8 8 5 6 9 11 12 12 12 12 12 12 12 12 11 11 10 10 10 10 9
7 7 6 6 6 6 6 6 6 7 8 9 10 10 10 10 10 10 8 9 9 10 11 11 12 13 12 13 11 9 9 8 9 9 9 7 6 11 11 12 12 12 12 12 12 11 11 10 10 10 10 9 9 8
7 7 7 6 6 6 6 7 8 9 9 10 10 10 10 10 8 9 9 9 9 11 12 12 10 12 12 12 9 8 9 8 10 9 8 6 9 10 11 11 11 12 12 11 11 10 10 10 10 9 9 9 9 8
6 7 7 8 8 8 8 8 9 9 9 9 9 5 8 8 8 8 8 9 13 12 12 12 10 11 10 9 7 9 7 8 9 8 8 6 10 11 10 11 11 11 11 10 10 9 9 9 9 8 8 8 7 8
6 6 7 8 8 8 8 9 9 9 9 9 9 6 8 11 12 13 13 12 13 13 12 11 10 11 8 7 7 7 8 9 8 7 6 10 11 10 10 9 10 10 9 9 8 8 8 8 8 8 8 7 7 7
6 6 7 7 7 8 8 9 9 9 9 9 9 9 11 10 11 12 13 13 12 13 12 12 9 9 9 7 8 8 9 8 6 6 11 11 10 10 9 9 9 9 8 8 8 8 7 7 7 7 6 6 6 6
6 6 6 6 7 7 8 8 8 9 9 9 10 11 12 12 12 13 14 14 12 12 9 9 10 9 7 7 8 7 7 6 9 11 11 11 10 10 9 9 8 8 8 8 7 7 7 6 6 6 5 4 4 4
6 6 6 6 6 7 7 8 8 8 8 10 10 12 12 13 13 14 14 13 12 12 11 10 10 8 7 7 7 7 10 11 11 11 10 10 10 9 9 9 8 8 8 8 7 7 6 5 5 4 4 3 3 3
6 6 6 6 6 7 7 8 8 8 10 11 12 12 12 13 14 14 14 14 13 13 13 11 9 8 7 8 10 11 10 11 11 10 10 10 10 9 9 9 8 8 8 7 7 6 5 5 4 4 4 4 3 3
6 6 6 6 6 7 8 9 9 9 10 12 12 12 13 14 14 13 13 12 11 12 11 9 8 12 12 14 13 13 12 11 10 10 9 9 9 8 9 9 8 8 7 7 6 5 5 4 4 4 4 4 4 4
6 6 6 6 6 7 7 8 9 10 11 12 13 13 13 12 12 12 12 12 11 11 10 13 13 14 13 13 13 12 12 12 11 11 10 10 9 9 9 8 8 8 7 6 5 5 5 5 5 4 4 5 5 5
6 6 6 6 6 7 7 9 9 10 11 12 12 12 12 11 11 11 11 10 10 12 12 12 12 12 12 12 12 12 13 12 12 11 10 10 9 8 8 8 8 8 7 6 6 6 5 5 5 5 5 4 5 5
6 6 6 7 7 8 9 9 9 10 9 11 12 11 10 10 11 10 10 10 11 12 12 12 12 12 12 12 12 12 12 12 11 11 10 9 9 9 8 8 8 8 7 6 6 6 6 6 5 5 5 5 5 5
6 6 6 7 7 7 9 10 10 11 11 10 10 11 10 10 10 9 8 10 11 12 12 12 11 11 11 11 11 11 11 11 11 11 10 10 9 9 9 9 8 8 7 7 6 6 6 6 6 6 5 5 5 5
6 7 7 5 8 8 9 10 10 10 11 11 11 10 10 10 8 9 9 11 11 11 11 11 12 12 11 11 11 11 11 11 10 10 10 10 10 9 9 9 8 8 8 7 7 6 6 6 6 6 6 6 5 5
5 7 6 8 9 8 10 12 11 11 11 12 11 11 10 8 10 11 9 13 12 12 12 11 11 11 11 11 11 11 11 10 10 10 10 10 10 10 9 9 8 8 8 7 7 7 7 6 6 6 6 6 5 5
5 7 8 9 10 10 11 12 12 11 12 12 10 10 10 11 11 11 14 14 14 13 12 12 12 11 11 11 11 11 11 11 10 11 10 10 10 10 10 10 9 9 8 8 7 7 7 7 7 6 6 6 6 5
7 8 7 10 10 11 11 11 11 12 13 13 12 10 12 12 11 14 15 14 14 13 12 12 11 12 12 11 11 11 11 10 11 10 10 10 10 10 10 9 9 9 8 8 7 7 7 7 7 6 6 6 6 6
7 9 9 9 10 11 11 10 11 14 15 14 11 10 11 14 14 14 14 14 13 12 12 11 11 12 12 12 12 11 11 11 10 10 9 10 9 9 9 9 9 9 8 8 7 7 7 7 7 7 6 6 6 5
8 9 9 10 10 10 13 14 15 15 15 15 15 14 14 14 14 15 14 14 14 13 13 13 12 12 12 12 11 11 11 11 10 10 10 10 9 9 9 9 9 8 8 7 7 7 7 7 6 6 6 6 6 6
9 9 10 10 11 13 14 15 14 14 14 13 13 13 13 13 12 13 13 13 13 13 13 13 13 12 12 12 11 11 10 10 10 10 10 10 10 10 9 9 9 8 8 8 8 7 7 7 7 7 6 6 6 6
10 10 10 10 12 15 15 15 15 15 13 12 12 12 12 12 10 11 11 12 12 12 13 13 13 13 12 13 13 13 12 11 11 11 10 10 10 10 9 9 9 8 8 8 8 8 7 7 7 7 7 7 6 6
11 11 12 12 13 14 14 15 14 12 12 11 10 10 9 9 9 9 8 10 10 10 10 10 10 11 11 12 12 13 12 12 12 11 11 10 10 10 10 9 9 8 8 8 8 8 8 8 8 7 7 7 7 7

GFSWCAN_850_temp_093.txt.gz
Temp
10 10 10 9 8 9 8 10 10 10 10 11 11 11 11 12 12 12 12 13 13 14 15 15 16 16 15 14 17 13 15 15 15 15 14 12 13 13 13 13 14 16 15 15 14 16 16 14 16 18 16 15 14 14
10 9 9 9 9 9 7 9 10 10 10 10 11 10 11 11 12 12 12 13 13 14 15 15 16 17 17 17 16 14 15 13 14 14 12 11 12 12 13 14 12 14 15 14 15 16 13 13 14 14 14 14 14 14
9 9 9 9 10 10 7 7 10 10 10 10 10 10 11 11 11 12 12 12 13 14 15 15 16 16 16 17 16 16 14 15 14 14 13 13 14 13 14 14 14 13 11 14 14 14 13 13 13 14 15 15 15 15
9 9 9 10 9 9 6 6 9 9 10 10 10 10 10 10 11 11 12 12 13 13 14 15 16 16 16 16 16 16 16 16 15 14 13 14 15 10 13 13 13 14 12 14 14 13 12 14 14 14 15 15 15 15
9 9 9 9 7 7 6 6 7 9 9 10 9 10 10 10 11 11 12 12 13 13 14 14 15 16 16 16 16 16 16 15 14 14 14 14 11 12 10 11 13 12 14 14 15 15 15 15 15 15 15 15 15 15
9 9 9 8 8 7 7 6 7 8 9 9 9 10 10 10 11 11 12 12 12 13 12 15 14 14 15 16 16 16 15 15 14 14 13 10 11 12 14 12 14 12 13 14 15 15 14 14 14 14 14 14 14 14
9 9 9 7 8 8 7 7 6 8 9 8 9 9 10 10 11 11 11 11 11 12 12 14 14 13 14 15 15 14 14 14 14 13 12 12 11 11 13 12 14 12 13 13 13 13 12 12 13 13 13 13 13 13
8 9 7 7 7 7 7 6 5 6 7 8 9 9 10 10 11 11 11 11 11 12 12 13 13 13 13 13 13 14 14 14 12 11 10 11 9 10 11 13 12 12 12 12 13 13 13 13 13 12 12 12 12 12
7 8 7 7 7 7 6 6 6 7 7 8 9 9 10 10 10 11 11 11 11 11 12 11 13 14 13 12 13 13 13 13 10 12 11 10 10 9 14 13 12 13 12 12 12 12 12 12 12 12 12 11 11 10
7 7 6 7 7 7 6 6 6 7 7 8 9 10 10 10 10 10 10 11 11 11 11 12 10 13 12 11 11 12 10 12 12 11 8 10 10 11 11 12 12 13 12 12 11 10 11 11 12 11 11 10 10 10
6 7 6 6 6 6 6 6 7 7 8 8 9 9 9 10 10 10 10 11 10 11 10 10 11 13 11 13 12 10 11 10 12 12 11 10 8 11 10 11 11 12 11 12 12 12 12 12 11 11 10 10 10 10
6 6 6 6 5 5 6 6 6 7 8 8 9 9 9 10 10 10 10 9 10 12 9 11 11 11 11 12 11 10 12 10 12 10 11 8 11 9 10 11 11 11 11 11 11 11 11 11 11 10 10 10 9 9
6 6 7 6 5 5 5 5 5 6 7 8 9 10 9 9 8 10 10 10 11 10 9 9 11 11 11 11 10 11 11 12 10 11 11 10 10 10 10 10 10 11 11 11 11 11 10 10 10 10 9 9 9 8
6 6 7 7 7 6 6 6 6 6 7 8 8 7 9 10 11 11 12 12 11 11 10 10 9 11 10 11 10 13 10 11 11 10 11 13 10 10 10 11 11 11 10 10 10 10 9 9 9 8 8 7 7 7
6 6 6 7 7 7 7 7 8 7 8 8 8 7 10 11 10 10 10 11 11 10 10 10 10 10 10 10 8 10 10 11 11 13 13 10 10 10 10 10 10 10 10 9 9 9 9 8 7 7 7 7 7 6
6 6 6 7 7 7 7 8 8 8 9 8 7 9 9 11 12 10 10 11 11 11 11 11 11 11 11 10 11 11 11 12 13 12 10 11 10 10 10 10 9 9 9 9 8 8 7 7 7 6 6 5 5 5
6 6 6 6 6 6 7 7 8 8 8 8 9 8 9 10 11 11 12 11 11 10 12 11 12 11 9 11 11 11 12 14 12 10 11 11 11 10 10 9 9 9 8 8 8 7 7 6 6 5 4 4 4 4
5 5 6 6 6 6 6 7 8 8 7 8 9 10 10 10 11 12 12 12 10 10 10 12 9 11 12 11 12 13 11 11 12 11 11 11 10 10 9 9 8 8 8 8 7 7 6 6 5 4 4 4 4 4
5 5 5 5 6 6 6 7 8 7 8 8 9 10 10 11 11 12 12 11 11 11 11 10 12 13 13 12 13 13 12 13 11 11 11 10 10 10 9 8 8 8 8 7 7 6 6 5 4 5 5 5 4 4
5 5 5 6 6 6 7 7 7 8 9 9 9 9 10 11 12 12 12 11 10 11 10 11 13 14 13 14 15 14 14 12 11 9 9 9 9 9 9 8 8 8 8 7 6 6 5 5 5 5 5 5 5 5
5 5 5 6 6 6 7 7 7 8 8 9 9 9 11 10 10 10 10 9 9 10 11 12 14 15 14 14 14 13 13 13 11 11 10 9 9 9 8 8 8 8 8 7 6 6 5 5 5 5 4 4 5 5
5 5 5 5 6 6 6 7 8 8 8 9 9 10 11 11 11 9 9 9 9 11 13 13 14 14 14 14 13 13 13 12 11 11 12 11 10 9 8 9 8 8 8 7 6 5 5 5 5 5 5 5 5 5
5 5 6 6 5 6 7 7 7 8 10 11 9 10 10 9 9 9 10 10 11 13 13 13 13 13 13 13 12 12 12 12 12 11 11 11 10 9 9 9 9 8 8 7 6 6 5 5 5 5 5 5 5 5
5 5 5 5 5 6 7 7 7 8 9 10 11 12 11 10 8 9 11 11 12 13 13 13 12 12 12 12 11 12 12 12 11 11 11 10 10 10 9 9 8 8 7 7 6 6 6 5 5 5 5 5 5 5
5 5 5 5 6 7 9 10 10 10 11 12 12 12 11 9 10 10 11 12 11 11 11 11 11 11 11 11 11 12 12 12 12 11 11 10 10 10 9 9 8 8 7 7 6 6 6 6 6 6 6 5 5 5
4 6 5 8 8 8 9 10 11 10 11 12 11 10 9 9 10 11 12 12 13 13 12 12 11 11 11 12 12 12 12 12 11 11 11 10 10 10 9 9 8 8 8 7 7 6 6 6 6 6 6 6 5 5
5 7 7 7 7 8 9 10 10 11 10 9 9 10 10 10 13 13 13 14 14 14 13 13 12 12 12 12 12 12 11 11 11 11 10 10 9 9 9 9 9 9 9 8 7 7 7 7 6 6 6 6 6 6
6 6 8 8 7 8 10 11 12 10 11 10 11 11 12 13 14 13 13 13 13 13 13 13 12 12 12 12 11 11 11 11 10 10 10 10 10 10 9 9 9 9 9 9 8 8 7 7 7 7 7 6 6 6
5 6 7 8 9 9 10 11 12 12 12 13 13 13 13 12 12 12 12 13 13 13 12 12 11 11 11 11 11 11 11 11 10 10 10 9 10 10 10 10 9 9 9 9 8 8 8 7 7 7 7 7 6 6
6 7 8 9 10 11 11 11 12 12 12 12 12 12 12 11 11 11 12 13 12 13 13 12 12 11 11 11 11 11 11 10 10 10 10 10 10 10 10 10 10 9 9 9 9 8 8 7 7 7 7 7 6 6
7 7 8 9 10 10 11 11 12 12 12 12 11 10 11 10 10 10 11 11 12 11 11 11 11 11 11 10 10 10 9 9 10 9 9 10 10 10 10 10 9 9 9 9 8 8 8 7 7 7 7 7 6 6
7 8 9 10 10 10 11 11 11 11 10 10 9 10 10 10 10 10 10 10 11 10 10 10 10 9 9 9 10 9 9 9 9 10 10 9 9 9 9 9 9 9 9 8 8 8 8 7 7 7 7 7 7 7
8 8 8 9 10 11 11 11 11 10 10 10 9 9 8 8 9 9 8 8 9 9 9 9 8 8 7 9 10 10 10 10 10 10 10 10 10 10 10 10 9 9 9 9 8 8 7 7 7 7 7 7 7 7

GFSWCAN_850_temp_096.txt.gz
Temp
10 10 10 10 10 10 9 9 9 10 10 10 10 10 10 12 12 12 11 13 13 17 17 16 17 18 18 19 20 17 18 18 19 19 19 17 17 18 17 18 19 19 19 19 20 19 18 18 19 20 18 18 18 19
10 10 10 10 10 10 10 10 9 10 10 10 10 10 10 11 12 12 11 13 13 13 16 15 15 16 16 18 19 17 19 19 19 19 18 18 17 18 18 17 17 17 19 18 19 19 17 17 17 17 17 18 17 18
9 9 9 9 10 10 11 10 7 10 10 10 10 9 10 10 11 12 11 12 13 14 16 16 17 16 17 17 17 19 18 17 17 16 19 19 17 19 18 18 18 18 16 18 18 19 18 17 16 17 16 17 17 16
9 9 9 9 10 10 9 8 7 10 10 9 9 9 9 10 11 11 11 12 12 14 18 18 16 16 17 16 16 17 17 16 15 16 19 19 19 17 19 18 18 18 17 18 18 18 17 16 16 16 16 16 16 15
8 9 9 10 10 8 7 7 6 9 9 9 9 9 9 10 11 11 11 12 12 13 18 19 16 15 16 16 16 16 16 16 17 17 19 19 17 17 17 17 18 17 18 17 18 18 18 18 17 16 16 16 15 15
8 8 9 10 9 7 8 7 7 8 9 9 8 9 9 10 10 11 12 12 12 13 15 18 15 15 15 15 16 16 16 16 17 18 18 16 14 16 18 17 18 18 17 17 18 17 17 16 15 15 16 15 15 15
7 8 9 8 6 7 7 7 8 8 8 8 8 9 9 10 10 10 12 10 12 12 15 17 18 14 14 15 15 15 15 16 16 17 17 17 16 15 18 16 18 17 16 15 14 15 15 15 16 14 14 14 14 14
7 8 8 7 7 7 7 7 7 6 7 7 8 9 9 10 10 11 10 11 11 12 14 17 17 16 14 17 17 15 16 16 15 16 15 16 15 16 15 17 16 15 14 14 14 14 15 15 14 13 13 13 13 14
7 7 7 7 7 7 6 6 6 6 7 7 8 9 9 10 10 10 11 11 11 11 15 15 17 17 14 16 16 15 16 17 14 17 16 15 16 12 16 16 16 15 14 15 14 14 14 14 14 13 13 13 13 13
7 6 6 6 6 6 6 6 6 7 7 8 8 9 11 10 10 10 11 11 11 12 13 15 15 16 15 16 17 17 16 17 16 17 13 14 14 15 15 14 14 14 14 14 14 13 13 14 13 13 13 12 12 12
6 6 6 5 6 6 6 6 6 7 7 8 9 9 9 10 10 11 13 14 14 14 12 14 16 16 14 17 18 16 16 16 15 16 15 14 11 16 13 13 13 13 13 13 13 14 13 13 13 12 12 11 11 11
6 5 5 5 5 5 6 6 7 7 8 8 8 9 9 10 12 13 14 14 14 15 13 14 15 16 14 14 15 14 15 15 16 15 15 13 15 13 13 13 12 12 12 12 13 13 13 12 12 12 11 11 10 10
6 6 5 5 5 4 4 6 7 7 8 8 9 9 10 11 9 13 13 13 14 14 12 12 14 14 12 14 15 15 15 16 15 15 13 13 15 13 12 11 11 11 12 12 12 12 11 11 10 10 10 9 9 9
5 6 6 6 6 5 5 5 6 7 8 8 8 6 10 11 14 15 16 16 15 14 13 14 14 16 14 14 15 16 16 16 14 14 14 18 14 12 11 12 12 12 11 11 11 10 10 9 8 8 8 7 7 7
5 6 6 6 6 6 7 6 6 6 7 7 8 9 11 14 14 14 14 13 12 13 12 13 14 15 15 15 15 14 14 14 15 16 18 16 12 11 11 11 11 11 11 10 9 9 8 8 8 7 7 7 6 6
5 5 6 6 6 7 7 7 7 7 7 8 10 12 13 14 15 14 14 14 11 10 12 13 14 14 15 15 14 15 15 15 17 18 16 12 11 11 11 11 11 11 10 10 9 9 8 8 7 7 6 6 5 5
5 6 6 5 6 7 7 7 7 7 9 10 12 12 13 14 15 14 14 14 12 12 14 15 15 15 15 15 15 16 16 18 17 16 14 12 11 10 10 10 10 10 9 9 8 8 7 7 6 6 6 5 5 5
5 5 6 5 6 6 6 7 7 8 10 11 12 14 13 13 14 14 12 12 13 13 14 15 15 15 15 15 15 17 17 16 15 15 13 11 10 10 10 9 9 9 8 8 8 7 7 6 6 6 6 5 6 6
5 5 5 6 5 6 6 7 7 7 10 11 12 12 12 13 13 13 13 12 12 12 14 14 15 16 17 17 18 17 16 16 15 12 11 10 10 9 9 9 8 8 8 7 7 7 7 6 7 6 6 6 6 6
5 5 5 5 5 6 6 7 7 8 11 12 11 12 12 13 13 13 12 12 12 12 13 14 16 17 17 17 16 16 16 14 13 10 10 10 10 9 9 9 9 8 8 7 7 7 7 6 6 6 6 6 6 6
5 5 5 5 6 6 6 7 9 9 10 11 12 12 13 13 12 13 12 10 12 13 15 15 16 16 16 15 15 14 14 13 13 13 12 11 10 10 9 9 9 9 8 8 8 7 7 7 7 6 6 6 6 6
5 5 5 5 5 6 6 7 9 9 10 11 12 12 13 13 12 12 11 11 13 14 14 15 15 16 16 13 14 14 13 11 12 13 12 11 10 10 10 9 9 9 9 8 8 8 7 7 7 6 6 7 6 7
5 5 5 5 6 6 7 7 9 10 12 13 13 13 14 13 12 10 12 13 14 14 14 14 14 13 13 13 12 13 12 11 11 12 11 11 11 11 10 10 9 9 9 8 8 8 7 6 6 6 7 6 7 7
5 5 6 7 6 7 8 8 9 11 11 13 14 14 14 13 9 10 13 15 15 14 14 12 12 13 12 11 12 12 11 11 12 12 11 12 11 10 10 10 10 9 9 8 8 7 7 6 6 6 7 7 7 7
5 5 5 5 7 8 9 11 12 13 13 13 13 13 13 11 13 13 14 14 15 14 13 12 12 13 13 13 13 12 11 12 13 12 12 12 11 10 10 10 9 9 8 8 7 7 7 7 7 7 7 7 7 7
5 7 6 10 11 10 11 11 12 12 13 13 12 11 11 12 13 14 15 15 15 14 13 13 13 12 13 13 13 12 11 12 12 12 11 11 11 11 10 10 9 8 8 8 8 8 7 7 7 7 7 7 6 6
6 9 9 9 10 10 11 12 12 12 11 8 8 9 10 11 13 14 14 13 14 13 12 12 12 13 13 13 13 12 11 11 11 12 11 11 11 11 10 10 10 9 8 8 8 8 8 8 8 7 8 8 7 7
9 9 9 10 10 11 12 13 11 9 8 8 8 10 11 13 14 14 13 12 12 12 12 12 12 13 13 13 12 11 11 10 10 10 10 10 10 10 10 10 10 9 9 8 8 8 8 8 8 8 8 8 8 7
8 9 10 10 11 12 12 13 10 10 11 11 13 13 13 13 11 11 11 12 13 12 13 13 12 12 12 11 11 11 11 11 11 11 11 10 9 9 9 9 9 9 8 8 9 8 8 8 8 8 8 8 8 7
9 9 10 11 12 12 13 13 13 13 13 13 12 12 13 11 10 10 10 11 11 11 11 13 13 12 12 11 11 10 11 11 12 12 11 11 11 10 9 9 9 9 9 9 9 8 8 8 7 7 7 8 8 8
10 10 10 11 12 12 13 13 13 13 13 12 11 11 12 11 10 10 10 10 10 10 10 10 10 10 11 11 11 9 9 9 10 10 10 10 10 10 9 10 9 10 9 9 9 8 8 7 8 8 8 8 8 7
10 10 11 12 12 12 12 13 13 14 13 12 12 12 12 13 12 10 9 9 10 10 9 8 8 9 9 10 9 8 9 10 9 8 9 9 9 9 10 10 10 9 9 9 8 8 8 8 8 8 8 8 8 7
10 11 11 11 12 13 13 13 14 12 11 11 10 11 11 11 11 9 8 8 8 8 8 7 7 7 9 8 7 7 8 9 9 9 8 8 9 9 9 9 9 9 9 9 9 9 8 8 9 8 8 8 8 7